Reflectivity
-20 -20 -20 -20 -20 -20 -20 -20 -20 -20 -20 -20 -20 -20 -20 -20 -20 -20 -20 -20 -20 -20 -20 -20 -20 -5 -20 -20 -20 -20 -20 -20 -20 -20 -20 -20 -20 -20 -20 -20 -20 -20 -16 -15 7 11 15 -18 -20
-20 -20 -20 -20 -20 -20 -20 -20 -20 -20 -20 -20 -20 -20 -20 -20 -20 -20 -20 -14 -20 -20 -20 -20 -20 -20 -20 -20 -20 -20 -20 -20 -20 -20 -20 -20 -20 -20 -6 -20 -17 3 8 8 12 -4 -20 -20 -20
-20 -20 -20 -20 -20 -20 -20 -20 -20 -20 -20 -20 -20 -20 -20 -20 -20 -20 -20 -20 -20 -20 -20 -20 -20 -20 -20 -20 -20 -20 -20 -20 -20 -20 -20 -20 -20 -20 -5 -20 -20 1 -7 -14 -20 -20 -20 -20 -20
-20 -20 -20 -20 -20 -20 -20 -20 -20 -20 -20 -20 -20 -20 -20 -20 -20 -20 -20 -20 -20 -20 -20 -20 -20 -20 -20 -20 -20 -20 -20 -20 -20 -20 -20 -20 -20 -20 -20 -20 -13 -17 -20 -20 -20 -20 -20 -20 -20
-20 -20 -20 -20 -20 -20 -20 -20 -20 -20 -20 -20 -20 -20 -20 -17 -20 -20 -20 -20 -20 -20 -20 -20 -20 -20 -20 -20 -20 -20 -20 -20 -20 -20 -20 -20 -20 -20 -20 -20 -20 -20 -20 -20 -20 -20 -20 -20 -20
-20 -20 -20 -20 -20 -20 -20 -20 -20 -20 -20 -20 -20 -20 -10 12 -20 -15 -20 -20 -20 -20 -20 -20 -20 -20 -20 -20 -20 -20 -20 -20 -20 -20 -20 -20 -20 -20 -20 -20 -20 -20 -20 -20 -20 -20 -20 -20 -20
-20 -20 -20 -20 -20 -20 -20 -20 -20 -20 -20 -20 -20 -20 -20 -16 2 7 -5 -20 -20 -20 -20 -20 -20 -20 -20 -20 -20 -20 -20 -20 -20 -20 -20 -20 -20 -20 -20 -20 -20 -20 -20 -20 -20 -20 -20 -20 -20
-20 -20 -20 -20 -20 -20 -20 -20 -20 -20 -20 -20 -20 -17 -20 11 4 -5 -3 -19 -20 -20 -20 -20 -20 -20 -20 -20 -20 -20 -20 -20 -20 -20 -20 -20 -20 -20 -20 -20 -20 -20 -20 -20 -20 -20 -20 -20 -20
-17 -20 -20 -20 -20 -20 -20 -20 -20 -20 -20 -20 -20 -20 -20 18 1 -20 -20 -20 -20 -20 -20 -20 -20 -20 -20 -20 -20 -20 -20 -20 -20 -20 -20 -20 -20 -20 -20 -20 -20 -20 -20 -20 -20 -20 -20 -20 -20
-4 -12 -18 -20 -20 -20 -20 -20 -20 -20 -20 -20 -20 -20 -20 5 -17 -2 -20 -20 -20 -20 -20 -20 -20 -20 -20 -20 -20 -20 -20 -20 -20 -20 -20 -20 -20 -20 -20 -20 -20 -20 -20 -20 -20 -20 -20 -20 -20
4 -13 -7 -20 -20 -20 -20 -20 -20 -20 -20 -20 -20 -20 -20 -20 -19 -17 25 5 -20 -20 -10 -4 -8 -20 -6 -20 -20 -20 -20 -20 -20 -20 -20 -20 -20 -20 -20 -20 -20 -20 -20 -20 -20 -20 -20 -20 -20
2 0 -13 -20 -20 -20 -20 -20 -20 -20 -20 -20 -20 -20 -20 -20 -20 -19 -1 -15 -9 -20 -20 -20 -20 -20 -2 -20 -20 -20 -20 -20 -20 -20 -20 -20 -20 -20 -20 -20 -20 -20 -20 -20 -20 -20 -20 -20 -20
-20 -20 -20 -20 -20 -20 -20 -20 -20 -20 -20 -20 -20 -20 -20 -20 -20 -20 -20 -20 4 -12 -10 -20 -20 -20 -20 -20 -9 -20 -20 -20 -20 -20 -20 -20 -20 -20 -20 -20 -20 -20 -20 -20 -20 -20 -20 -20 -20
-20 -20 -20 -20 -20 -20 -20 -20 -20 -20 -20 -20 -20 -20 -20 -20 -20 -20 -20 -20 -20 -20 -20 -20 8 -0 -8 -14 -19 -20 -20 -20 -20 -20 -20 -20 -20 -20 -20 -20 -20 -20 -20 -20 -20 -20 -20 -20 -20
-20 -20 -20 -20 -20 -20 -20 -20 -20 -20 -20 -20 -20 -20 -20 -20 -20 -20 -20 -20 -20 -20 -20 -20 -7 11 17 10 1 -13 -19 -20 -20 -20 -20 -20 -20 -20 -20 -20 -20 -20 -20 -20 -20 -20 -20 -20 -20
-20 -20 -20 -20 -20 -20 -20 -20 -20 -20 -20 -20 -20 -20 -20 -20 -20 -20 -20 -20 -20 -20 -20 -20 -20 7 14 10 3 -1 -1 -20 -20 -20 -20 -20 -20 -20 -20 -20 -20 -20 -20 -20 -20 -20 -20 -20 -20
-20 -20 -20 -20 -20 -20 -20 -20 -20 -20 -20 -20 -20 -20 -20 -20 -20 -20 -20 -20 -20 -20 -20 -20 -20 -17 15 20 11 4 5 -20 -20 -20 -20 -20 -20 -20 -20 -20 -20 -20 -20 -20 -20 -20 -20 -20 -20
-20 -20 -20 -20 -20 -20 -20 -20 -20 -20 -20 -20 -20 -20 -20 -20 -20 -20 -20 -20 -20 -20 -20 -20 -20 -20 -8 19 17 12 24 -11 -4 -20 -20 -20 -20 -20 -20 -20 -20 -20 -20 -20 -20 -20 -20 -20 -20
-20 -20 -20 -20 -20 -20 -20 -20 -20 -20 -20 -20 -20 -20 -20 -20 -20 -20 -20 -20 -20 -20 -20 -20 -20 -20 -6 18 26 19 -2 -19 16 6 -20 -20 -20 -20 -20 -20 -20 -20 -20 -20 -20 -20 -20 -20 -20
-20 -20 -20 -20 -20 -20 -20 -20 -20 -20 -20 -20 -20 -20 -20 -20 -20 -20 -20 -20 -20 -20 -20 -20 -20 -20 -20 -1 1 13 23 0 -8 4 0 -2 -20 -14 -20 -20 -20 -20 -20 -20 -20 -20 -20 -20 -20
-20 -20 -20 -20 -20 -20 -20 -20 -20 -20 -20 -20 -20 -20 -20 -20 -20 -20 -20 -20 -20 -20 -20 -20 -20 -20 -20 -20 -4 7 -3 24 24 19 33 22 11 -12 -19 -20 -20 -20 -20 -20 -20 -20 -20 -20 -20
-20 -20 -20 -20 -20 -20 -20 -20 -20 -20 -20 -20 -20 -20 -20 -20 -20 -20 -20 -20 -20 -20 -20 -20 -20 -20 -20 -20 -20 -20 14 17 24 -14 16 27 12 4 -20 -20 -20 -20 -20 -20 -20 -20 -20 -20 -20
-20 -20 -20 -20 -20 -20 -20 -20 -20 -20 -20 -20 -20 -20 -20 -20 -20 -20 -20 -20 -20 -20 -20 -20 -20 -20 -20 -20 -20 -20 -20 -20 2 28 21 24 32 0 -20 -20 -20 -20 -20 -20 -20 -20 -20 -20 -20
-20 -20 -20 -20 -20 -20 -20 -20 -20 -20 -20 -20 -20 -20 -20 -20 -20 -20 -20 -20 -20 -20 -20 -20 -20 -20 -20 -20 -20 -20 -20 -20 -7 1 17 22 25 37 8 28 -12 -15 -20 -20 -20 -20 -20 -20 -20
-20 -20 -20 -20 -20 -20 -20 -20 -20 -20 -20 -20 -20 -20 -20 -20 -20 -20 -20 -20 -20 -20 -20 -20 -20 -20 -20 -20 -20 -20 -20 -20 -17 -20 -13 13 26 29 40 26 24 -11 -0 -1 -20 -20 -20 -20 -20
-20 -20 -20 -20 -20 -20 -20 -20 -20 -20 -20 -20 -20 -20 -20 -20 -20 -20 -20 -20 -20 -20 -20 -20 -20 -20 -20 -20 -20 -20 -20 -20 -20 -20 -20 -2 0 26 31 35 29 26 25 26 27 -20 -20 -20 -20
-20 -20 -20 -20 -20 -20 -20 -20 -20 -20 -20 -20 -20 -20 -20 -20 -20 -20 -20 -20 -20 -20 -20 -20 -20 -20 -20 -20 -20 -20 -20 -20 -20 -8 0 -20 -14 -20 -20 17 26 30 26 24 26 24 26 10 -20
-20 -20 -20 -20 -20 -20 -20 -20 -20 -20 -20 -20 -20 -20 -20 -20 -20 -20 -20 -20 -20 -20 -20 -20 -20 -20 -20 -20 -20 -20 -20 -20 -20 -20 -20 -20 -20 -20 -20 -15 19 21 18 28 22 24 25 24 -5
-20 -20 -20 -20 -20 -20 -20 -20 -20 -20 -20 -20 -20 -20 -20 -20 -20 -20 -20 -20 -20 -20 -20 -20 -20 -20 -20 -20 -20 -20 -20 -20 -20 -20 -20 -20 -20 -20 -20 -20 -20 -8 19 13 5 22 31 16 23
-20 -20 -20 -20 -20 -20 -20 -20 -20 -20 -20 -20 -20 -20 -20 -20 -20 -20 -20 -20 -20 -20 -20 -20 -20 -20 -20 -20 -20 -20 -20 -20 -20 -20 -20 -20 -20 -20 -20 -20 -20 -19 -19 -8 30 5 16 29 24
Wind_Speed
11 8 1 2 2 8 11 9 5 14 4 2 5 3 2 7 3 3 5 5 20 19 15 14 10 12 14 18 18 19 19 19 19 19 17 17 16 16 16 17 19 19 18 19 19 18 18 19 17
7 3 2 3 5 7 7 11 14 12 10 12 3 2 4 6 5 5 7 11 17 18 15 14 10 11 14 17 18 18 19 19 17 18 17 17 16 15 17 17 17 17 18 19 19 17 17 16 15
2 2 2 5 4 9 5 14 14 14 8 8 2 4 4 7 6 4 10 16 17 16 15 14 10 10 12 17 18 17 17 18 17 16 17 17 17 16 17 17 17 17 19 18 18 15 15 14 13
3 2 4 10 14 7 8 13 17 19 14 19 6 8 9 10 8 4 13 17 17 16 15 14 11 9 12 15 17 17 16 16 16 15 16 17 17 16 16 16 16 17 17 15 13 13 13 12 12
3 2 4 5 6 6 10 15 16 20 7 21 13 6 7 10 10 10 13 13 14 15 14 15 12 10 12 15 16 16 15 14 14 15 15 16 17 16 14 15 14 13 13 13 13 14 14 13 11
3 2 4 6 9 12 8 15 15 23 20 26 10 5 7 10 11 7 8 10 11 14 13 13 12 10 10 14 14 14 14 13 11 12 13 15 15 15 14 14 13 12 11 11 12 13 14 12 11
4 3 5 4 5 8 12 15 15 15 25 27 10 8 4 14 9 9 8 8 8 10 12 10 11 10 7 9 12 12 12 11 10 10 11 11 13 12 13 13 12 12 11 11 11 13 13 12 12
3 3 4 10 6 8 14 10 9 17 18 9 18 13 10 9 7 7 8 8 7 6 7 8 8 9 10 10 7 10 10 10 10 9 9 10 10 11 11 11 11 11 11 11 12 13 12 12 12
1 6 9 8 8 5 16 12 9 12 9 20 19 17 13 7 5 6 5 7 6 5 6 6 7 7 8 9 9 9 9 9 10 9 8 9 9 11 12 8 9 9 10 11 11 11 10 10 9
8 5 7 7 3 4 19 24 12 13 21 18 26 24 20 19 13 6 2 3 4 5 5 6 7 7 6 6 9 9 9 8 8 10 10 6 8 8 8 9 8 8 8 9 10 9 9 8 7
8 6 5 11 8 2 9 24 22 14 17 15 19 19 19 20 19 19 14 3 5 6 5 7 7 7 8 7 6 5 5 6 6 9 10 7 5 5 5 6 7 7 7 7 8 8 6 7 6
12 17 8 3 13 5 9 9 22 20 9 12 14 14 20 22 20 19 17 16 13 8 10 11 10 8 10 6 6 7 6 7 6 7 9 8 5 6 6 5 7 7 7 8 8 6 6 6 6
10 3 11 6 18 18 20 17 21 20 14 15 16 22 21 20 21 18 18 17 16 13 10 10 12 10 9 10 7 8 9 8 9 8 10 8 8 7 7 6 6 7 7 8 7 7 6 6 6
7 15 19 12 6 16 10 12 11 14 12 18 19 20 19 21 21 20 22 20 20 19 17 17 11 11 12 11 12 10 9 10 9 9 10 12 9 8 8 7 7 7 7 7 7 8 7 6 5
4 6 15 20 11 8 4 17 14 12 12 18 18 18 19 20 22 22 19 18 17 16 18 19 15 14 12 13 11 11 11 10 10 9 13 15 13 11 11 8 8 8 6 6 5 5 5 6 5
6 6 4 10 18 8 2 5 17 12 16 17 18 17 18 21 20 21 21 19 19 17 18 18 15 12 15 12 8 8 10 11 9 9 9 16 16 14 12 9 9 9 7 6 6 6 6 6 6
10 5 6 2 11 6 11 4 15 10 17 17 17 16 17 19 24 23 21 20 19 19 19 19 18 14 15 10 9 8 11 11 9 8 9 14 16 15 12 10 10 11 9 8 7 6 6 7 7
4 4 4 5 8 7 8 9 9 10 16 15 16 17 18 18 20 20 22 18 18 19 19 18 16 16 14 11 7 6 7 8 8 8 9 13 13 15 13 11 11 11 10 10 9 9 7 5 7
10 8 4 1 3 5 7 8 8 8 13 14 14 15 17 18 16 17 19 20 19 18 20 20 19 18 12 10 8 6 9 8 7 9 12 15 14 16 15 12 13 12 12 13 13 10 10 8 5
10 7 6 2 4 2 2 7 2 8 9 9 11 14 17 18 22 21 21 21 20 19 19 20 19 19 12 9 8 5 6 6 7 7 10 13 14 15 15 14 13 13 11 13 12 13 9 9 9
7 7 3 3 8 2 0 5 4 4 5 7 11 11 12 15 16 20 21 20 20 20 19 18 18 19 16 16 9 8 7 4 5 8 9 12 15 16 16 15 13 13 12 12 13 13 15 10 9
3 6 5 5 4 2 5 1 1 5 6 10 13 13 15 15 14 16 17 18 19 19 18 18 17 18 16 18 14 16 7 8 4 7 8 10 15 16 15 16 15 14 11 13 12 12 13 11 11
2 10 1 1 2 2 7 2 3 4 3 12 14 14 14 15 14 15 16 16 16 17 17 17 18 18 18 17 15 11 12 9 8 9 8 10 10 14 17 16 16 15 12 14 14 13 15 12 11
10 2 4 3 1 2 1 6 2 2 2 6 11 14 15 15 15 13 14 14 15 15 16 17 18 19 18 17 17 16 16 14 10 10 8 7 6 7 13 16 14 14 14 15 14 16 16 15 14
11 4 2 2 3 2 4 5 3 3 3 3 8 13 15 14 14 14 14 14 14 16 16 17 19 18 19 19 18 17 16 14 13 12 9 10 7 7 10 14 13 13 16 16 15 14 16 16 15
6 5 3 1 3 4 8 1 3 7 5 3 6 10 13 14 11 13 13 13 14 14 15 16 19 19 18 18 17 16 16 11 10 11 11 8 8 7 10 11 14 16 16 16 15 12 13 15 15
2 5 2 4 3 3 3 3 7 7 10 9 12 16 16 16 13 11 12 12 13 12 13 14 16 17 18 18 15 15 15 15 14 15 13 9 11 10 11 12 15 16 16 16 14 13 16 16 16
5 3 2 3 2 2 3 4 3 8 10 13 16 17 18 16 12 10 10 11 12 12 11 11 14 15 16 18 15 13 14 14 14 13 14 15 13 15 14 12 11 14 16 16 16 14 16 17 15
3 3 5 4 1 1 4 2 5 6 9 15 17 14 14 12 10 10 8 9 10 10 9 9 12 14 14 14 15 15 14 15 13 12 14 14 15 14 15 13 14 11 11 15 15 16 16 19 18
1 3 4 2 4 2 2 6 5 5 10 12 12 13 13 9 11 10 8 8 9 9 9 9 10 12 13 14 14 14 14 14 14 14 14 14 15 14 14 14 13 13 13 10 13 17 17 19 18
Wind_Direction
323 326 299 37 115 76 54 6 295 319 318 279 327 208 165 39 6 17 79 123 137 134 139 137 124 128 125 117 116 115 113 112 112 113 115 113 113 113 112 109 114 110 107 103 102 103 104 102 94
323 330 54 76 71 78 48 347 357 327 300 297 253 128 55 63 40 85 117 135 137 132 136 139 133 129 126 117 115 115 116 116 117 119 121 119 117 117 115 116 115 111 111 111 109 104 104 102 96
282 347 62 75 59 64 42 353 346 338 1 11 95 50 47 19 50 94 121 142 137 133 136 133 127 129 127 119 119 120 121 122 124 126 125 124 123 120 120 118 121 121 119 116 112 104 105 100 96
353 53 74 94 94 86 33 350 350 9 10 12 339 66 87 24 340 84 134 141 139 138 139 130 123 133 132 123 123 124 125 128 129 131 130 129 126 123 121 119 119 119 119 119 115 113 112 107 102
32 68 79 88 88 87 16 359 359 30 32 12 360 42 64 19 34 113 131 141 141 139 140 142 127 137 139 131 129 129 129 131 133 134 134 130 127 126 122 118 118 120 120 118 113 117 118 114 108
61 84 84 96 89 53 355 354 11 32 32 20 15 34 65 21 50 78 122 135 140 138 139 141 134 136 140 133 130 129 132 132 134 134 131 129 130 128 124 121 121 117 117 111 110 116 117 117 114
89 65 81 82 78 45 359 338 26 23 29 22 344 42 54 24 40 58 87 109 123 132 135 141 147 139 114 123 129 130 132 131 129 129 126 125 127 130 127 127 129 130 125 117 122 127 126 127 125
74 78 68 32 34 57 357 346 16 24 49 11 27 16 2 354 43 77 81 90 103 121 135 139 150 155 152 149 123 129 130 131 131 128 125 125 125 127 129 130 135 136 130 123 133 135 135 135 134
5 57 56 29 34 355 13 24 21 24 58 42 36 23 340 357 50 77 114 123 128 145 155 159 165 168 158 153 145 127 127 128 132 134 120 138 147 153 154 135 145 144 136 131 138 139 135 131 131
40 67 61 2 21 35 57 49 29 46 32 11 15 13 18 23 21 27 92 178 177 167 188 191 184 184 176 166 160 162 159 163 167 164 165 165 159 162 162 151 141 143 139 133 135 130 124 158 146
25 67 95 37 352 63 102 60 43 47 37 11 359 1 12 24 25 28 2 279 221 208 203 203 202 198 201 181 179 176 172 169 172 175 169 169 168 164 172 159 160 160 155 156 156 151 169 165 158
98 63 63 28 27 28 65 66 52 47 19 357 21 23 29 26 24 23 16 13 319 241 218 210 212 200 207 197 205 192 183 177 182 187 184 174 178 189 190 185 172 174 175 168 175 173 163 163 171
82 94 52 78 53 62 69 59 60 40 25 29 31 28 24 24 22 22 20 14 12 351 297 236 215 204 205 206 208 205 203 192 189 187 191 192 186 190 199 197 196 190 180 177 178 178 176 174 179
130 83 66 41 46 47 61 48 52 22 38 41 31 26 23 18 13 15 17 11 4 352 348 335 238 217 213 195 198 208 206 199 198 190 196 197 198 190 197 206 208 205 200 189 186 183 183 186 180
101 69 48 21 23 40 224 51 40 8 43 43 36 24 19 20 12 15 8 5 2 355 347 345 324 234 210 223 211 197 200 204 205 206 201 199 200 199 192 201 214 209 208 199 193 195 192 189 190
44 52 50 15 9 10 27 48 38 26 52 43 35 27 22 13 12 10 7 2 0 359 357 348 351 291 231 220 216 220 209 200 204 211 212 208 202 201 200 202 206 204 202 208 205 200 201 206 203
28 90 61 32 17 360 37 31 27 39 54 45 41 35 23 15 8 4 8 3 359 358 355 357 357 1 350 250 223 215 223 214 200 199 211 219 212 203 207 211 211 199 203 205 208 208 221 208 209
87 85 61 43 5 38 37 44 47 50 59 47 38 29 26 18 9 357 359 8 3 360 357 356 359 358 353 342 225 222 218 227 204 202 209 217 218 212 210 214 216 209 205 208 206 212 205 228 225
111 97 93 336 21 356 15 46 59 53 53 43 29 26 22 14 6 5 2 3 5 8 0 357 355 358 356 356 335 248 222 211 219 209 210 207 213 212 211 217 213 209 216 213 207 209 212 209 212
76 100 32 281 326 333 64 74 93 41 41 37 36 28 18 11 5 4 359 360 4 2 2 355 353 354 355 348 322 278 301 227 216 216 209 214 207 209 212 213 214 214 215 218 216 209 206 217 197
67 58 19 321 319 66 42 147 75 48 27 34 32 26 26 13 7 358 358 356 356 1 359 356 350 349 353 350 334 326 313 238 203 211 212 212 211 208 210 212 215 211 214 215 214 214 215 215 202
88 34 346 331 324 30 342 94 147 358 15 30 12 8 6 5 5 1 359 358 359 357 355 356 353 353 352 353 352 351 329 328 307 211 218 220 213 214 210 212 209 212 213 216 213 213 219 222 220
350 340 310 212 112 201 36 274 128 352 8 13 10 6 1 360 359 355 358 358 355 357 356 355 357 358 355 352 354 349 345 334 320 325 246 219 211 214 216 211 212 213 210 216 211 206 206 212 224
326 31 76 70 50 83 63 350 89 29 21 12 19 14 2 354 354 351 349 357 0 360 357 356 357 358 357 355 352 352 350 343 341 339 330 303 213 213 223 225 221 217 219 219 214 210 206 210 215
9 39 70 102 35 26 339 317 342 205 224 301 351 357 1 353 347 347 347 347 348 351 356 353 354 352 357 354 353 350 349 345 341 339 329 325 312 223 223 219 217 223 223 225 221 214 215 209 213
12 22 70 42 7 332 334 260 341 242 256 272 310 342 345 347 340 336 341 338 337 341 345 353 352 347 349 352 348 349 349 345 339 336 328 334 341 319 286 224 222 226 227 225 225 225 220 221 218
54 48 25 99 53 256 322 295 281 263 267 283 316 328 335 336 336 326 339 337 336 341 341 347 351 347 344 347 345 346 347 347 341 339 337 339 333 329 326 318 237 233 229 225 222 222 229 227 222
64 106 153 46 88 305 269 270 287 331 320 316 318 324 322 326 327 325 332 333 336 345 341 343 350 348 343 340 344 344 344 346 343 338 341 340 336 329 328 328 322 240 229 226 222 223 229 229 226
140 123 70 98 30 174 297 208 217 274 313 315 315 313 321 326 319 319 322 331 341 343 346 339 346 346 345 343 339 338 343 342 346 343 341 341 336 334 332 333 330 315 282 234 221 228 226 225 226
88 142 146 151 177 218 296 271 220 261 318 333 327 321 322 327 320 318 321 331 332 336 347 340 341 343 342 339 339 339 339 341 341 345 343 339 338 335 332 335 334 331 326 309 255 222 226 228 223